Powrót do katalogu

SL-8 R/B

AktywnyPO
NORAD 13302·ROCKET BODY·🇷🇺 Russia

Wystrzelony Jun 29, 1982 z Plesetsk Cosmodrome

Loading…

Następne Przeloty (najbliższe 24 godziny)

TLE

ŚwieżeSource: Space-Track

Epoka: Sep 14, 2026, 20:15 UTC

1 13302U 82066B   26257.84414808  .00000069  00000-0  61273-4 0  9998
2 13302  82.9274 277.2103 0037761 245.4078 294.1469 13.70546759210677

Śledź SL-8 R/B w czasie rzeczywistym z AllMySat

Download on the App Store